Regional Weather Roundup
Issued by NWS

Home | Current Version | Previous Version | Graphics & Text | Print | Product List | Glossary On
Versions: 1 2 3 4 5 6 7 8 9 10 11 12 13 14 15 16 17 18 19 20 21 22 23 24 25 26 27 28 29 30 31 32 33 34 35 36 37 38 39 40 41 42 43 44 45 46 47 48 49 50
000
ASUS45 KCYS 302210
RWRWY

WYOMING REGIONAL WEATHER ROUNDUP
NATIONAL WEATHER SERVICE CHEYENNE WY
400 PM MDT WED JUL 30 2014

NOTE:  "FAIR" INDICATES FEW OR NO CLOUDS BELOW 12,000 FEET
WITH NO SIGNIFICANT WEATHER AND/OR OBSTRUCTIONS TO VISIBILITY.

WYZ001-302300-
YELLOWSTONE NATIONAL PARK

CITY           SKY/WX    TMP DP  RH WIND       PRES   REMARKS
LK YELLOWSTONE   N/A     69  34  27 SE5       30.46F
W YELLOWSTONE  NOT AVBL

$$
WYZ002>013-054>058-071-098>099-302300-
NORTHERN WYOMING

CITY           SKY/WX    TMP DP  RH WIND       PRES   REMARKS
JACKSON        SUNNY     73  46  38 SW8       30.35S
CODY           NOT AVBL
GREYBULL       MOSUNNY   84  41  21 CALM      30.19F
WORLAND        MOSUNNY   84  43  23 VRB3      30.22F
SHERIDAN       MOSUNNY   85  37  18 SW5       30.22F
BUFFALO        MOSUNNY   80  34  19 VRB3      30.29F
GILLETTE       PTSUNNY   82  38  20 NE12      30.24F
HULETT         FAIR      81  39  22 MISG      30.24
NEWCASTLE      FAIR      81  36  19 N3        30.21  HAZE

$$
WYZ014>020-022>026-101>103-302300-
CENTRAL WYOMING

CITY           SKY/WX    TMP DP  RH WIND       PRES   REMARKS
BIG PINEY      LGT RAIN  57  49  74 SW6       30.44F
PINEDALE       CLOUDY    61  45  55 NW8       30.43F
DUBOIS         FAIR      68  37  32 E12       30.42S
LANDER         CLOUDY    72  43  35 W6        30.32F
RIVERTON       CLOUDY    75  42  30 NE3       30.33S
CASPER         MOSUNNY   78  41  26 VRB7      30.28F
DOUGLAS        MOSUNNY   78  46  32 SW9       30.28F

$$
WYZ021-027>030-104>119-302300-
SOUTHERN WYOMING

CITY           SKY/WX    TMP DP  RH WIND       PRES   REMARKS
EVANSTON       CLOUDY    61  53  75 E15       30.40R
KEMMERER       CLOUDY   N/A N/A N/A NE12      30.43S
FORT BRIDGER   CLOUDY    61  56  84 NE9       30.43S
ROCK SPRINGS   LGT RAIN  61  55  81 NE13      30.39F
DIXON          CLOUDY    65  55  68 E10       30.33F
RAWLINS        LGT RAIN  63  49  60 E17       30.38R
SARATOGA       LGT RAIN  63  52  67 CALM      30.37S
LARAMIE        LGT RAIN  59  50  72 S10       30.40F
CHEYENNE       CLOUDY    61  55  81 S7        30.38S
TORRINGTON     PTSUNNY   77  45  32 S7        30.24F
PINE BLUFFS    MOCLDY    63  55  77 S8        30.35R

$$


USA.gov is the U.S. government's official web portal to all federal, state and local government web resources and services.